Location: Zagreb
(45.8000°N, 16.0000°E)
Time: 11:07:09
(UTC+01:00)

A-11 Canister half - All Passes

Search period start: 19 January 2022 00:00
Search period end: 29 January 2022 00:00
Orbit: 1524 x 1684 km, 47.3° (Epoch: 18 January)

Date Brightness Start Highest point End Pass type
(mag) Time Alt. Az. Time Alt. Az. Time Alt. Az.
19 Jan - 11:17:51 10° S 11:25:30 29° SE 11:33:18 10° ENE daylight
19 Jan - 13:20:01 10° SW 13:29:22 72° SSE 13:39:03 10° ENE daylight
19 Jan - 15:24:55 10° W 15:34:31 82° N 15:44:29 10° E daylight
19 Jan - 17:30:09 10° WNW 17:39:53 80° SSW 17:49:55 10° ESE visible
19 Jan - 19:35:26 10° WNW 19:44:13 38° SW 19:53:11 10° SSE visible
20 Jan - 10:56:27 10° S 11:03:54 28° SE 11:11:31 10° ENE daylight
20 Jan - 12:58:24 10° SW 13:07:42 70° SSE 13:17:20 10° ENE daylight
20 Jan - 15:03:14 10° W 15:12:49 82° N 15:22:45 10° E daylight
20 Jan - 17:08:28 10° WNW 17:18:11 82° SSW 17:28:13 10° ESE visible
20 Jan - 19:13:43 10° WNW 19:22:35 40° SW 19:31:39 10° SSE visible
21 Jan - 10:35:04 10° S 10:42:19 26° SE 10:49:42 10° E daylight
21 Jan - 12:36:47 10° SW 12:46:03 68° SSE 12:55:37 10° ENE daylight
21 Jan - 14:41:33 10° W 14:51:06 83° N 15:01:01 10° E daylight
21 Jan - 16:46:48 10° WNW 16:56:29 84° SSW 17:06:30 10° ESE daylight
21 Jan - 18:52:01 10° WNW 19:00:56 42° SW 19:10:05 10° SSE visible
21 Jan - 21:01:52 10° WSW 21:03:58 11° WSW 21:06:05 10° SW visible
22 Jan - 10:13:41 10° S 10:20:44 25° SE 10:27:54 10° E daylight
22 Jan - 12:15:11 10° SW 12:24:23 66° SSE 12:33:54 10° ENE daylight
22 Jan - 14:19:53 10° W 14:29:24 83° N 14:39:17 10° E daylight
22 Jan - 16:25:07 10° WNW 16:34:47 85° SSW 16:44:47 10° ESE daylight
22 Jan - 18:30:18 10° WNW 18:39:18 43° SW 18:48:31 10° SSE visible
22 Jan - 20:39:16 10° WSW 20:42:23 12° WSW 20:45:32 10° SW visible
23 Jan - 09:52:20 10° S 09:59:10 23° SE 10:06:04 10° E daylight
23 Jan - 11:53:35 10° SW 12:02:45 64° SSE 12:12:12 10° ENE daylight
23 Jan - 13:58:12 10° W 14:07:42 84° N 14:17:33 10° E daylight
23 Jan - 16:03:27 10° WNW 16:13:06 87° SSW 16:23:05 10° ESE daylight
23 Jan - 18:08:36 10° WNW 18:17:39 45° SW 18:26:57 10° SSE visible
23 Jan - 20:16:57 10° W 20:20:49 13° WSW 20:24:43 10° SW visible
24 Jan - 09:31:00 10° S 09:37:35 22° SE 09:44:15 10° E daylight
24 Jan - 11:31:59 10° SW 11:41:06 62° SSE 11:50:29 10° ENE daylight
24 Jan - 13:36:31 10° W 13:46:01 84° N 13:55:49 10° E daylight
24 Jan - 15:41:46 10° WNW 15:51:24 88° SSW 16:01:21 10° ESE daylight
24 Jan - 17:46:54 10° WNW 17:56:00 47° SW 18:05:22 10° SSE visible
24 Jan - 19:54:48 10° W 19:59:14 14° WSW 20:03:43 10° SSW visible
25 Jan - 09:09:41 10° S 09:16:00 21° SE 09:22:23 10° E daylight
25 Jan - 11:10:23 10° SW 11:19:27 60° SSE 11:28:46 10° ENE daylight
25 Jan - 13:14:51 10° W 13:24:18 85° N 13:34:05 10° E daylight
25 Jan - 15:20:06 10° WNW 15:29:42 89° SSW 15:39:38 10° ESE daylight
25 Jan - 17:25:13 10° WNW 17:34:21 49° SW 17:43:46 10° SSE visible
25 Jan - 19:32:43 10° W 19:37:38 15° SW 19:42:38 10° SSW visible
26 Jan - 08:48:24 10° SSE 08:54:26 19° SE 09:00:30 10° E daylight
26 Jan - 10:48:48 10° SW 10:57:49 57° SSE 11:07:04 10° ENE daylight
26 Jan - 12:53:11 10° W 13:02:37 86° N 13:12:22 10° E daylight
26 Jan - 14:58:26 10° WNW 15:08:00 90° NNE 15:17:55 10° ESE daylight
26 Jan - 17:03:32 10° WNW 17:12:42 51° SW 17:22:10 10° SE visible
26 Jan - 19:10:43 10° W 19:16:03 16° SW 19:21:29 10° SSW visible
27 Jan - 08:27:09 10° SSE 08:32:52 18° SE 08:38:36 10° E daylight
27 Jan - 10:27:14 10° SW 10:36:11 55° SE 10:45:21 10° ENE daylight
27 Jan - 12:31:30 10° WSW 12:40:56 87° N 12:50:39 10° E daylight
27 Jan - 14:36:45 10° WNW 14:46:18 89° N 14:56:11 10° ESE daylight
27 Jan - 16:41:50 10° WNW 16:51:03 53° SW 17:00:33 10° SE daylight
27 Jan - 18:48:46 10° W 18:54:28 17° SW 19:00:16 10° SSW visible
28 Jan - 08:05:57 10° SSE 08:11:18 17° SE 08:16:40 10° E daylight
28 Jan - 10:05:39 10° SW 10:14:33 53° SE 10:23:38 10° ENE daylight
28 Jan - 12:09:50 10° WSW 12:19:14 88° NNW 12:28:55 10° ENE daylight
28 Jan - 14:15:05 10° WNW 14:24:37 87° NNE 14:34:28 10° ESE daylight
28 Jan - 16:20:10 10° WNW 16:29:24 55° SW 16:38:56 10° SE daylight
28 Jan - 18:26:51 10° W 18:32:52 18° SW 18:39:00 10° SSW visible
